[[{"header":{"parameterUnit":"m.s-1","parameterCategory":1,"la1":30.2991,"la2":30.254,"lo1":-89.0895,"lo2":-89.0444,"dy":0.0017,"dx":0.0017,"nx":28,"ny":28,"refTime":"2025-03-16T21:00:00:Z","depth":0,"parameterNumber":2,"parameterNumberName":"U-component_of_WINDS"},"data":[0,0,0,0,0,0,0,0,0,0,0,0,0,0,0,0,0,0,0,0,0,0,0,0,0,0,0,0,0,0,0,0,0,0,0,0,0,0,0,0,0,0,0,0,0,0,0,0,0,0,0,0,0,0,0,0,0,0,2.2001,2.2001,0,2.2031,2.2031,2.2031,2.2001,2.2,2.1999,2.1998,2.2027,2.2029,2.2031,0,0,0,0,0,0,0,0,0,0,0,0,0,2.1918,2.192,2.2001,2.2001,2.2002,2.2031,2.2031,2.2031,2.2002,2.2,2.1999,2.1997,2.2027,2.2029,2.2031,0,0,0,0,0,0,0,0,0,0,0,0,0,2.1952,2.192,2.2001,2.199,2.199,2.2031,2.2031,2.2032,2.2002,2.2,2.1998,2.1997,2.2026,2.2029,2.2031,2.2084,0,0,2.204,2.2041,0,0,0,0,0,0,0,0,2.195,2.1955,2.1992,2.1991,2.1991,2.2011,2.2013,2.2049,2.2002,2.1997,2.1998,2.1996,2.2023,2.2026,2.2035,2.2085,2.2087,2.204,2.2042,2.2043,2.2044,0,0,0,0,0,0,0,2.1947,2.1953,2.2013,2.1992,2.1992,2.1984,2.1987,2.2019,2.202,2.1998,2.1995,2.1999,2.2022,2.2033,2.2036,2.2087,2.204,2.2043,2.2044,2.2046,2.2182,2.2183,0,0,0,0,0,0,2.1946,2.1951,2.2012,2.2014,2.1965,2.1987,2.199,2.2006,2.2019,2.202,2.2001,2.1998,2.2029,2.2033,2.2037,2.2099,2.2043,2.2046,2.2047,2.218,2.2182,2.2184,0,0,0,0,0,0,2.1945,2.1952,2.2011,2.1982,2.1989,2.199,2.2008,2.2007,2.2018,2.2022,2.2022,2.2011,2.2028,2.2033,2.2073,2.2099,2.2047,2.205,2.2177,2.218,2.2183,2.2224,0,0,0,0,0,0,2.1942,2.1952,2.1972,2.1983,2.1991,2.2046,2.201,2.2009,2.2023,2.2019,2.2032,2.2032,2.2027,2.2069,2.2075,2.2102,2.2052,2.2175,2.2179,2.2182,2.222,2.2228,2.2234,0,0,0,0,0,2.194,2.1982,2.1973,2.198,2.2016,2.2048,2.2052,2.2045,2.2025,2.2045,2.2048,2.2032,2.2096,2.2073,2.208,2.2109,2.2173,2.2178,2.2182,2.2217,2.2226,2.2234,0,0,0,0,0,0,2.1973,2.1983,2.1973,2.202,2.2033,2.2043,2.2067,2.2056,2.2075,2.207,2.2061,2.2064,2.2106,2.2111,2.2086,2.216,2.2131,2.2137,2.2155,2.2164,2.2171,2.2168,2.2054,0,0,0,0,0,2.1986,2.2012,2.2019,2.2059,2.2067,2.2066,2.208,2.2074,2.2087,2.2092,2.2098,2.2111,2.2134,2.2149,2.2171,2.2221,2.2223,2.2244,2.2251,2.2257,2.2262,2.2289,2.2298,2.2198,2.2198,2.2198,0,0,2.2013,2.2021,2.2038,2.2066,2.2076,2.2102,2.2071,2.21,2.212,2.2097,2.2134,2.2139,2.2153,2.2198,2.2218,2.2204,2.229,2.2263,2.2267,2.2269,2.2294,2.2304,2.2312,2.2201,2.2201,2.22,0,0,2.2075,2.2084,2.2119,2.213,2.2145,2.2144,2.2153,2.2164,2.2166,2.2204,2.2188,2.2211,2.2251,2.2262,2.2272,2.234,2.2325,2.2347,2.2384,2.241,2.2418,2.2425,2.2449,2.2457,2.2352,2.2352,2.2353,0,2.2106,2.2146,2.2139,2.2169,2.2182,2.2163,2.2198,2.2209,2.223,2.2239,2.2223,2.2273,2.2282,2.2329,2.2345,2.2355,2.2364,2.2345,2.2418,2.2424,2.2431,2.2453,2.2462,2.2355,2.2355,2.2354,2.2354,0,2.2183,2.2211,2.2237,2.2259,2.2275,2.2307,2.2305,2.2322,2.2315,2.2316,2.2355,2.2365,2.2388,2.2399,2.2392,2.2446,2.2436,2.2419,2.2389,2.2443,2.2464,2.2472,2.2358,2.2358,2.2357,2.2356,0,0,2.2266,2.2284,2.2294,2.2303,2.2319,2.234,2.2372,2.2395,2.241,2.2426,2.2452,2.2487,2.2471,2.2484,2.2478,2.2501,2.2554,2.2481,2.2481,2.2494,2.2613,2.2625,2.2635,2.2545,2.2546,2.2548,2.2611,0,2.2328,2.2384,2.2379,2.2432,2.2457,2.244,2.2468,2.2481,2.2483,2.2505,2.2507,2.2532,2.251,2.2517,2.2539,2.2542,2.2577,2.2538,2.2569,2.257,2.2565,2.2646,2.2659,2.2718,2.262,2.2621,2.2622,0,2.2408,2.2427,2.2482,2.2495,2.2505,2.253,2.2551,2.2572,2.2586,2.2586,2.2601,2.2591,2.2623,2.2594,2.2638,2.2612,2.2624,2.2628,2.263,2.2632,2.2598,2.2649,2.2737,2.2746,2.2635,2.2634,2.2633,0,2.2462,2.2502,2.254,2.2549,2.2564,2.2582,2.2589,2.2602,2.2616,2.2635,2.2644,2.2666,2.2677,2.2695,2.2691,2.267,2.2736,2.2707,2.2737,2.2737,2.2751,2.275,2.2841,2.276,2.276,2.276,2.276,0,2.2532,2.2566,2.2565,2.2588,2.2626,2.262,2.2658,2.2663,2.2675,2.2699,2.2686,2.2708,2.2703,2.2726,2.2723,2.276,2.2766,2.2766,2.2765,2.2767,2.2767,2.2774,2.277,2.2762,2.2762,2.2761,2.2761,0,2.2598,2.2599,2.2639,2.2651,2.2655,2.2682,2.2692,2.2714,2.2716,2.2746,2.2753,2.2756,2.2782,2.2781,2.281,2.2808,2.2854,2.2848,2.2849,2.2847,2.2877,2.2874,2.2976,2.2989,2.2901,2.2901,2.2902,0,2.2642,2.2668,2.2683,2.2698,2.2707,2.2732,2.2746,2.2742,2.2758,2.2776,2.2796,2.2821,2.2841,2.2883,2.2888,2.291,2.2905,2.2939,2.2908,2.2909,2.2904,2.2902,2.2905,2.2945,2.2946,2.2946,2.2947,0,2.272,2.2719,2.2741,2.2763,2.2781,2.2798,2.2814,2.2827,2.2825,2.2843,2.287,2.2885,2.2916,2.2941,2.2962,2.2969,2.2958,2.2957,2.2965,2.2967,2.2966,2.2966,2.2865,2.2954,2.2954,2.2953,2.2953,2.2952,2.2776,2.2798,2.2812,2.2837,2.2849,2.2864,2.2885,2.289,2.2912,2.2937,2.2933,2.2963,2.2977,2.3005,2.3014,2.3037,2.3025,2.3037,2.304,2.3043,2.3046,2.2963,2.3042,2.3041,2.3041,2.3041,2.3041,0,2.2852,2.2861,2.2884,2.2906,2.2926,2.2914,2.2931,2.2948,2.2975,2.2989,2.3009,2.304,2.3064,2.3071,2.3094,2.3111,2.3107,2.3118,2.3116,2.3118,2.3056,2.3046,2.3121,2.3121,2.3121,2.3121,2.3121,2.3121,2.2894,2.2932,2.2933,2.2976,2.2984,2.3013,2.3024,2.3038,2.3049,2.3084,2.3104,2.3109,2.312,2.3144,2.3166,2.3167,2.3176,2.3189,2.3188,2.313,2.3122,2.3114,2.3105,2.3191,2.3191,2.3248,2.3249,2.3249]},{"header":{"parameterUnit":"m.s-1","parameterCategory":1,"la1":30.2991,"la2":30.254,"lo1":-89.0895,"lo2":-89.0444,"dy":0.0017,"dx":0.0017,"nx":28,"ny":28,"refTime":"2025-03-16T21:00:00:Z","depth":0,"parameterNumber":3,"parameterNumberName":"V-component_of_WINDS"},"data":[0,0,0,0,0,0,0,0,0,0,0,0,0,0,0,0,0,0,0,0,0,0,0,0,0,0,0,0,0,0,0,0,0,0,0,0,0,0,0,0,0,0,0,0,0,0,0,0,0,0,0,0,0,0,0,0,0,0,-4.3689,-4.3691,0,-4.3944,-4.3947,-4.395,-4.3937,-4.3933,-4.393,-4.3926,-4.4191,-4.4201,-4.4211,0,0,0,0,0,0,0,0,0,0,0,0,0,-4.3191,-4.3201,-4.3688,-4.3692,-4.3695,-4.3944,-4.3947,-4.3951,-4.3938,-4.3933,-4.3929,-4.3925,-4.4187,-4.42,-4.4212,0,0,0,0,0,0,0,0,0,0,0,0,0,-4.3423,-4.3204,-4.3688,-4.3718,-4.3723,-4.3943,-4.3948,-4.3952,-4.3939,-4.3933,-4.3928,-4.3923,-4.4183,-4.4198,-4.4214,-4.4421,0,0,-4.4262,-4.4269,0,0,0,0,0,0,0,0,-4.341,-4.3442,-4.3711,-4.3716,-4.3723,-4.3903,-4.3869,-4.4109,-4.394,-4.3857,-4.3926,-4.392,-4.41,-4.4122,-4.4182,-4.4433,-4.4445,-4.4263,-4.4273,-4.4279,-4.4284,0,0,0,0,0,0,0,-4.3394,-4.343,-4.379,-4.3714,-4.3722,-4.372,-4.3747,-4.3915,-4.4006,-4.3864,-4.3864,-4.3894,-4.4102,-4.4167,-4.4188,-4.4448,-4.4263,-4.4277,-4.4286,-4.4292,-4.4884,-4.489,0,0,0,0,0,0,-4.3371,-4.3417,-4.3782,-4.3797,-4.355,-4.3733,-4.3763,-4.3851,-4.4004,-4.4022,-4.3898,-4.3892,-4.4143,-4.417,-4.4197,-4.4451,-4.4279,-4.4294,-4.4303,-4.4878,-4.4885,-4.4892,0,0,0,0,0,0,-4.336,-4.3404,-4.3771,-4.3607,-4.3654,-4.3748,-4.3846,-4.3859,-4.3924,-4.403,-4.4047,-4.3948,-4.414,-4.4175,-4.4366,-4.446,-4.4301,-4.4315,-4.487,-4.488,-4.4889,-4.496,0,0,0,0,0,0,-4.3346,-4.34,-4.3479,-4.3609,-4.3663,-4.3935,-4.3852,-4.3868,-4.3951,-4.3945,-4.4081,-4.4098,-4.4138,-4.4342,-4.4381,-4.4479,-4.4328,-4.4862,-4.4875,-4.4886,-4.4949,-4.497,-4.4988,0,0,0,0,0,-4.3328,-4.3489,-4.3483,-4.3527,-4.3763,-4.394,-4.3971,-4.4013,-4.3958,-4.4039,-4.4108,-4.4094,-4.4443,-4.4362,-4.4406,-4.4509,-4.4857,-4.4871,-4.4885,-4.4941,-4.4966,-4.4988,0,0,0,0,0,0,-4.3368,-4.3506,-4.3501,-4.3709,-4.3813,-4.3937,-4.4041,-4.4038,-4.4161,-4.4151,-4.4198,-4.4229,-4.442,-4.4483,-4.439,-4.4719,-4.4643,-4.4667,-4.467,-4.4696,-4.4715,-4.4696,-4.4341,0,0,0,0,0,-4.3401,-4.3532,-4.3646,-4.3818,-4.387,-4.3946,-4.4025,-4.4048,-4.4158,-4.4202,-4.4285,-4.4393,-4.4527,-4.4614,-4.4744,-4.4958,-4.4988,-4.5051,-4.507,-4.5086,-4.5106,-4.5226,-4.5256,-4.4939,-4.4939,-4.4938,0,0,-4.347,-4.3562,-4.3642,-4.3828,-4.3911,-4.4047,-4.3984,-4.413,-4.4232,-4.4225,-4.441,-4.4474,-4.4598,-4.4801,-4.4895,-4.486,-4.52,-4.5104,-4.5115,-4.5128,-4.5244,-4.5274,-4.53,-4.4948,-4.4947,-4.4945,0,0,-4.3666,-4.3748,-4.3901,-4.3985,-4.4112,-4.4162,-4.4198,-4.4324,-4.4367,-4.4553,-4.4551,-4.4673,-4.4902,-4.4991,-4.5066,-4.5296,-4.5289,-4.5337,-4.544,-4.5556,-4.5581,-4.5603,-4.5687,-4.5716,-4.5356,-4.5357,-4.5357,0,-4.3736,-4.394,-4.398,-4.4128,-4.421,-4.4209,-4.4365,-4.4446,-4.4608,-4.4666,-4.4624,-4.4913,-4.4996,-4.5221,-4.5277,-4.5338,-4.5382,-4.5322,-4.5574,-4.5597,-4.5618,-4.5699,-4.573,-4.5362,-4.5361,-4.5361,-4.536,0,-4.4021,-4.4163,-4.4271,-4.4428,-4.4523,-4.4674,-4.4737,-4.4828,-4.4843,-4.4898,-4.5088,-4.5187,-4.5338,-4.5392,-4.5408,-4.5621,-4.5595,-4.5563,-4.5488,-4.5653,-4.5729,-4.576,-4.5369,-4.5367,-4.5366,-4.5364,0,0,-4.4251,-4.4427,-4.4467,-4.4538,-4.4678,-4.4789,-4.494,-4.5086,-4.5164,-4.5276,-4.5406,-4.56,-4.5572,-4.5657,-4.5683,-4.5784,-4.5962,-4.574,-4.5744,-4.578,-4.6205,-4.6229,-4.6264,-4.5957,-4.5963,-4.5968,-4.6195,0,-4.4463,-4.473,-4.477,-4.5007,-4.5139,-4.514,-4.5272,-4.5373,-4.5428,-4.5549,-4.5609,-4.5747,-4.5698,-4.575,-4.585,-4.5919,-4.6049,-4.5903,-4.608,-4.6086,-4.6051,-4.6304,-4.6331,-4.654,-4.6225,-4.623,-4.6234,0,-4.4746,-4.4865,-4.5115,-4.5237,-4.5294,-4.5412,-4.555,-4.5665,-4.5779,-4.5812,-4.5908,-4.5921,-4.608,-4.5997,-4.6217,-4.6117,-4.6191,-4.6236,-4.6245,-4.6265,-4.6171,-4.6333,-4.6607,-4.6639,-4.6281,-4.6277,-4.6274,0,-4.489,-4.5113,-4.5292,-4.5353,-4.55,-4.5583,-4.5648,-4.5757,-4.5843,-4.5963,-4.602,-4.6157,-4.6233,-4.6339,-4.639,-4.6325,-4.6608,-4.6528,-4.6641,-4.664,-4.6702,-4.6698,-4.6995,-4.6747,-4.6746,-4.6746,-4.6745,0,-4.5124,-4.5277,-4.5359,-4.5469,-4.5641,-4.5686,-4.5855,-4.5918,-4.6015,-4.6139,-4.6147,-4.6263,-4.6322,-4.6447,-4.6488,-4.6665,-4.6698,-4.6731,-4.674,-4.6731,-4.6728,-4.6782,-4.677,-4.6754,-4.6752,-4.6751,-4.6749,0,-4.5315,-4.5376,-4.5571,-4.5694,-4.5728,-4.585,-4.5956,-4.6064,-4.6117,-4.6273,-4.6312,-4.6397,-4.6545,-4.6606,-4.6787,-4.6814,-4.7018,-4.7015,-4.698,-4.6983,-4.7093,-4.7083,-4.7437,-4.7487,-4.7204,-4.7206,-4.7209,0,-4.5461,-4.5579,-4.5714,-4.5797,-4.5865,-4.5998,-4.6085,-4.6134,-4.6225,-4.6364,-4.6456,-4.6603,-4.6724,-4.696,-4.7038,-4.7177,-4.7179,-4.7294,-4.7201,-4.7188,-4.7184,-4.7177,-4.719,-4.7312,-4.7315,-4.7317,-4.7319,0,-4.5715,-4.5739,-4.5864,-4.6,-4.6104,-4.6214,-4.6321,-4.6388,-4.6453,-4.6555,-4.6706,-4.68,-4.6984,-4.7131,-4.7275,-4.7343,-4.7344,-4.7347,-4.7381,-4.7375,-4.735,-4.7367,-4.7029,-4.7339,-4.7337,-4.7336,-4.7335,-4.7334,-4.589,-4.5995,-4.6107,-4.6246,-4.6331,-4.6432,-4.6539,-4.6606,-4.6732,-4.6886,-4.6907,-4.7069,-4.7182,-4.7374,-4.7448,-4.7577,-4.7548,-4.7596,-4.7609,-4.7621,-4.7629,-4.7327,-4.7603,-4.7602,-4.7602,-4.7601,-4.7601,0,-4.6145,-4.6217,-4.6345,-4.6494,-4.6604,-4.6592,-4.671,-4.6804,-4.6946,-4.705,-4.7169,-4.7343,-4.7485,-4.7575,-4.7719,-4.7805,-4.7809,-4.7841,-4.7837,-4.7853,-4.7646,-4.7603,-4.7836,-4.7836,-4.7836,-4.7836,-4.7836,-4.7836,-4.6291,-4.6469,-4.6507,-4.6728,-4.6799,-4.6957,-4.7026,-4.7119,-4.7203,-4.7396,-4.7515,-4.7571,-4.7671,-4.7822,-4.7953,-4.7976,-4.803,-4.8065,-4.8086,-4.7891,-4.7867,-4.7844,-4.7804,-4.8075,-4.8076,-4.8283,-4.8285,-4.8286]}]]